Location: Unspecified
(0.0000°N, 0.0000°E)
Time: 06:02:59
(UTC+00:00)

METEOR M2 - Pass Details

Date: 08 July 2020
Orbit: 818 x 828 km, 98.5° (Epoch: 13 August)

Event Time Altitude Azimuth Distance (km) Brightness Sun altitude
Exits shadow 21:11:29 13° 263° (W) 2,206 ? -42.2°
Drops below altitude 10° 21:13:25 10° 285° (WNW) 2,424 ? -42.6°
Sets 21:17:06 0° 311° (NW) 3,354 ? -43.4°
